[[{"header":{"parameterUnit":"m.s-1","parameterCategory":1,"la1":30.2991,"la2":30.254,"lo1":-89.0895,"lo2":-89.0444,"dy":0.0017,"dx":0.0017,"nx":28,"ny":28,"refTime":"2026-02-13T03:00:00:Z","depth":0,"parameterNumber":2,"parameterNumberName":"U-component_of_WINDS"},"data":[0,0,0,0,0,0,0,0,0,0,0,0,0,0,0,0,0,0,0,0,0,0,0,0,0,0,0,0,0,0,0,0,0,0,0,0,0,0,0,0,0,0,0,0,0,0,0,0,0,0,0,0,0,0,0,0,0,0,0.364,0.364,0,0.3698,0.3699,0.3699,0.372,0.3719,0.3719,0.3719,0.3782,0.3784,0.3785,0,0,0,0,0,0,0,0,0,0,0,0,0,0.3549,0.355,0.364,0.364,0.3641,0.3698,0.3699,0.3699,0.372,0.3719,0.3719,0.3719,0.3781,0.3783,0.3786,0,0,0,0,0,0,0,0,0,0,0,0,0,0.3596,0.3551,0.364,0.3658,0.366,0.3698,0.3699,0.37,0.372,0.3719,0.3719,0.3719,0.378,0.3783,0.3786,0.381,0,0,0.3795,0.3796,0,0,0,0,0,0,0,0,0.3593,0.3599,0.3655,0.3657,0.3659,0.3701,0.369,0.3737,0.372,0.3697,0.3719,0.3719,0.3755,0.376,0.3772,0.3813,0.3816,0.3795,0.3797,0.3798,0.3799,0,0,0,0,0,0,0,0.359,0.3597,0.3663,0.3655,0.3658,0.3664,0.367,0.3699,0.3728,0.3699,0.3701,0.3707,0.3757,0.3769,0.3774,0.3817,0.3795,0.3797,0.3799,0.38,0.388,0.3881,0,0,0,0,0,0,0.3583,0.3594,0.3661,0.3665,0.3625,0.3666,0.3673,0.3688,0.3727,0.3733,0.3707,0.3708,0.3765,0.377,0.3776,0.3807,0.3798,0.38,0.3802,0.388,0.3881,0.3881,0,0,0,0,0,0,0.3581,0.3589,0.3659,0.363,0.3639,0.3668,0.3685,0.3689,0.3702,0.3734,0.3739,0.3715,0.3765,0.3772,0.3801,0.3809,0.3802,0.3804,0.388,0.388,0.3881,0.3869,0,0,0,0,0,0,0.3578,0.3588,0.3597,0.363,0.364,0.3682,0.3685,0.3691,0.3706,0.3708,0.3742,0.3747,0.3765,0.3797,0.3804,0.3813,0.3806,0.3879,0.388,0.3881,0.3868,0.3869,0.3869,0,0,0,0,0,0.3575,0.3592,0.3597,0.3605,0.3652,0.3682,0.3689,0.3708,0.3707,0.3717,0.3737,0.3746,0.3807,0.38,0.3808,0.3818,0.3879,0.388,0.3881,0.3868,0.3869,0.3869,0,0,0,0,0,0,0.3561,0.3597,0.3603,0.3631,0.3653,0.3686,0.3699,0.3708,0.3732,0.3732,0.3755,0.3763,0.379,0.3807,0.3798,0.3843,0.3843,0.3846,0.3831,0.3832,0.3832,0.3828,0.3809,0,0,0,0,0,0.3561,0.3581,0.3612,0.3634,0.3644,0.3669,0.3684,0.3696,0.3721,0.3731,0.3753,0.3777,0.3802,0.3818,0.3842,0.3871,0.3879,0.3882,0.3882,0.3882,0.3884,0.39,0.3902,0.3884,0.3884,0.3884,0,0,0.3561,0.3583,0.3595,0.3631,0.365,0.3672,0.3677,0.37,0.3717,0.3735,0.3763,0.378,0.3809,0.3838,0.3852,0.3853,0.3891,0.3883,0.3883,0.3885,0.3901,0.3903,0.3905,0.3885,0.3885,0.3885,0,0,0.3573,0.3592,0.3611,0.363,0.3658,0.3674,0.3679,0.371,0.3722,0.375,0.3764,0.3784,0.3826,0.3846,0.3862,0.388,0.389,0.3888,0.3889,0.3905,0.3906,0.3908,0.3914,0.3916,0.389,0.389,0.3889,0,0.357,0.3603,0.3621,0.3643,0.3658,0.3674,0.3694,0.3712,0.3747,0.3758,0.3758,0.381,0.3831,0.3864,0.3869,0.3881,0.3887,0.3884,0.3904,0.3906,0.3907,0.3914,0.3916,0.3889,0.3889,0.3889,0.3889,0,0.3598,0.362,0.3633,0.3665,0.3682,0.3703,0.3725,0.3741,0.3751,0.3768,0.3797,0.3822,0.3851,0.386,0.3872,0.3895,0.3895,0.3899,0.39,0.3908,0.3915,0.3918,0.3888,0.3889,0.3889,0.3889,0,0,0.3604,0.3644,0.3649,0.3663,0.3695,0.3713,0.3735,0.3762,0.3775,0.3798,0.3818,0.3852,0.3856,0.3874,0.3887,0.3901,0.3914,0.3904,0.3905,0.3905,0.3942,0.3938,0.3941,0.392,0.3921,0.3921,0.3939,0,0.362,0.3658,0.3675,0.3706,0.3727,0.3742,0.3761,0.3783,0.3798,0.3819,0.3837,0.3861,0.3864,0.3875,0.3889,0.3909,0.3921,0.3908,0.3939,0.394,0.3931,0.3944,0.3941,0.3957,0.3942,0.3942,0.3943,0,0.3644,0.3666,0.3699,0.3727,0.3736,0.3753,0.378,0.3799,0.3824,0.3835,0.3854,0.3866,0.3891,0.3889,0.3923,0.3914,0.3927,0.3939,0.394,0.3944,0.3942,0.3949,0.3962,0.3964,0.3947,0.3947,0.3946,0,0.3644,0.3682,0.3707,0.3719,0.3753,0.3764,0.3779,0.3803,0.3819,0.3842,0.3852,0.3879,0.3893,0.3914,0.3933,0.393,0.3966,0.3966,0.3976,0.3975,0.3983,0.3982,0.3999,0.3991,0.3991,0.3991,0.3991,0,0.3661,0.368,0.3707,0.3723,0.3745,0.3764,0.3786,0.3802,0.3824,0.3843,0.3858,0.3875,0.39,0.3921,0.3937,0.3963,0.3969,0.3979,0.3983,0.3978,0.3977,0.3988,0.3987,0.3992,0.3992,0.3991,0.3991,0,0.3665,0.3684,0.3712,0.3741,0.3749,0.3764,0.3789,0.3805,0.3821,0.3845,0.3852,0.3877,0.3903,0.3924,0.3958,0.3969,0.3996,0.4,0.3987,0.3989,0.3998,0.3997,0.4022,0.4027,0.4015,0.4016,0.4016,0,0.3675,0.369,0.372,0.3733,0.3747,0.3769,0.3784,0.3803,0.3819,0.3848,0.386,0.3886,0.3908,0.3949,0.3971,0.3997,0.4003,0.401,0.4007,0.4001,0.4003,0.4002,0.4004,0.401,0.401,0.401,0.401,0,0.3689,0.3697,0.3718,0.3742,0.376,0.378,0.38,0.3811,0.3834,0.3851,0.3876,0.3893,0.3927,0.3953,0.3981,0.3998,0.4008,0.4011,0.4015,0.401,0.4001,0.4006,0.3988,0.401,0.401,0.401,0.401,0.401,0.3697,0.3711,0.3734,0.3756,0.3774,0.3792,0.3808,0.3825,0.3847,0.3875,0.3885,0.3911,0.3936,0.3975,0.3991,0.4012,0.4014,0.4019,0.4021,0.4022,0.4021,0.3997,0.4018,0.4018,0.4018,0.4018,0.4018,0,0.3712,0.3727,0.3748,0.3775,0.3793,0.38,0.3823,0.3838,0.386,0.3881,0.3902,0.3931,0.3957,0.398,0.4007,0.4019,0.4025,0.4026,0.4025,0.4029,0.4018,0.4012,0.4021,0.4021,0.4021,0.4021,0.4021,0.4021,0.3722,0.3746,0.3757,0.3789,0.3805,0.3829,0.3842,0.3859,0.3877,0.3908,0.3928,0.3943,0.3966,0.3994,0.4017,0.4024,0.4033,0.4033,0.4041,0.403,0.403,0.4029,0.4024,0.4035,0.4035,0.405,0.405,0.405]},{"header":{"parameterUnit":"m.s-1","parameterCategory":1,"la1":30.2991,"la2":30.254,"lo1":-89.0895,"lo2":-89.0444,"dy":0.0017,"dx":0.0017,"nx":28,"ny":28,"refTime":"2026-02-13T03:00:00:Z","depth":0,"parameterNumber":3,"parameterNumberName":"V-component_of_WINDS"},"data":[0,0,0,0,0,0,0,0,0,0,0,0,0,0,0,0,0,0,0,0,0,0,0,0,0,0,0,0,0,0,0,0,0,0,0,0,0,0,0,0,0,0,0,0,0,0,0,0,0,0,0,0,0,0,0,0,0,0,0.1425,0.1425,0,0.1361,0.1361,0.136,0.1335,0.1335,0.1335,0.1336,0.1269,0.1267,0.1265,0,0,0,0,0,0,0,0,0,0,0,0,0,0.1526,0.1524,0.1426,0.1425,0.1424,0.1361,0.1361,0.136,0.1335,0.1335,0.1336,0.1336,0.127,0.1268,0.1265,0,0,0,0,0,0,0,0,0,0,0,0,0,0.1474,0.1524,0.1426,0.1404,0.1402,0.1362,0.1361,0.1359,0.1335,0.1335,0.1336,0.1336,0.1271,0.1268,0.1265,0.1241,0,0,0.1256,0.1255,0,0,0,0,0,0,0,0,0.1477,0.147,0.1408,0.1406,0.1403,0.1357,0.1372,0.132,0.1335,0.136,0.1336,0.1336,0.1298,0.1293,0.128,0.1238,0.1235,0.1256,0.1254,0.1253,0.1252,0,0,0,0,0,0,0,0.1481,0.1473,0.14,0.1407,0.1404,0.1397,0.139,0.1362,0.1328,0.1358,0.1356,0.1349,0.1297,0.1283,0.1278,0.1234,0.1256,0.1253,0.1251,0.125,0.117,0.117,0,0,0,0,0,0,0.1488,0.1476,0.1402,0.1398,0.1441,0.1395,0.1387,0.1371,0.1329,0.1322,0.1349,0.1348,0.1288,0.1282,0.1276,0.1246,0.1253,0.125,0.1248,0.1171,0.117,0.117,0,0,0,0,0,0,0.149,0.1482,0.1405,0.1437,0.1426,0.1393,0.1375,0.137,0.1356,0.1322,0.1315,0.1341,0.1288,0.128,0.125,0.1243,0.1249,0.1246,0.1171,0.117,0.117,0.1185,0,0,0,0,0,0,0.1493,0.1483,0.1473,0.1437,0.1425,0.138,0.1375,0.1368,0.1351,0.135,0.1313,0.1307,0.1287,0.1255,0.1247,0.1239,0.1244,0.1172,0.1171,0.117,0.1185,0.1186,0.1186,0,0,0,0,0,0.1497,0.148,0.1473,0.1464,0.1413,0.138,0.1373,0.1351,0.1351,0.1341,0.1319,0.1308,0.1245,0.1252,0.1243,0.1234,0.1172,0.1171,0.117,0.1185,0.1185,0.1186,0,0,0,0,0,0,0.1517,0.1475,0.1467,0.1438,0.1413,0.1376,0.1363,0.1352,0.1326,0.1326,0.13,0.1292,0.1264,0.1246,0.1254,0.1209,0.1208,0.1205,0.1222,0.1222,0.1222,0.1227,0.1241,0,0,0,0,0,0.1518,0.1495,0.146,0.1437,0.1425,0.1396,0.1381,0.1367,0.134,0.1329,0.1304,0.1278,0.1253,0.1236,0.1211,0.1183,0.1174,0.1172,0.1172,0.1173,0.1171,0.1155,0.1153,0.1167,0.1167,0.1167,0,0,0.152,0.1494,0.1481,0.1441,0.1419,0.1396,0.1388,0.1363,0.1346,0.1325,0.1296,0.1277,0.1246,0.1217,0.1203,0.1201,0.1165,0.1171,0.1172,0.117,0.1154,0.1152,0.1151,0.1166,0.1166,0.1167,0,0,0.1511,0.1489,0.1469,0.1448,0.1416,0.1397,0.1392,0.1357,0.1344,0.1314,0.1298,0.1276,0.1233,0.1211,0.1195,0.1179,0.1168,0.1171,0.1171,0.1156,0.1155,0.1154,0.1148,0.1146,0.1169,0.1169,0.1169,0,0.1517,0.1482,0.1459,0.1436,0.1419,0.1399,0.1378,0.1358,0.132,0.1308,0.1307,0.1252,0.123,0.1195,0.1192,0.1179,0.1172,0.1175,0.1157,0.1156,0.1154,0.1149,0.1147,0.117,0.117,0.117,0.117,0,0.1491,0.1467,0.1454,0.1418,0.1399,0.1376,0.135,0.1334,0.1321,0.1302,0.1272,0.1245,0.1213,0.1204,0.1191,0.1168,0.1168,0.1162,0.116,0.1154,0.1148,0.1146,0.1171,0.1171,0.117,0.117,0,0,0.1493,0.1445,0.1441,0.1424,0.1388,0.1368,0.1345,0.1315,0.1301,0.1275,0.1255,0.1219,0.1213,0.1195,0.1179,0.1165,0.1155,0.1161,0.116,0.1161,0.1128,0.1133,0.113,0.1147,0.1146,0.1146,0.113,0,0.148,0.1438,0.1417,0.1384,0.1362,0.1343,0.1323,0.1298,0.128,0.1258,0.1237,0.1212,0.1207,0.1195,0.1181,0.1159,0.1148,0.116,0.1128,0.1127,0.1136,0.1127,0.1132,0.1119,0.1128,0.1128,0.1127,0,0.1459,0.1434,0.1399,0.1365,0.1355,0.1337,0.1308,0.1287,0.1259,0.1246,0.1226,0.121,0.1185,0.1185,0.115,0.1159,0.1144,0.1131,0.113,0.1127,0.1127,0.1123,0.1114,0.1112,0.1123,0.1124,0.1124,0,0.1465,0.1422,0.1395,0.1381,0.1342,0.133,0.1312,0.1284,0.1268,0.1242,0.1231,0.1202,0.1187,0.1165,0.1142,0.1144,0.1109,0.1107,0.1098,0.1099,0.1092,0.1093,0.108,0.1083,0.1083,0.1083,0.1083,0,0.1452,0.1432,0.1397,0.1381,0.1357,0.1333,0.131,0.1291,0.1267,0.1246,0.1228,0.1209,0.1181,0.1158,0.114,0.1114,0.1107,0.1096,0.1092,0.1098,0.11,0.1089,0.1089,0.1082,0.1082,0.1082,0.1083,0,0.1454,0.143,0.14,0.1365,0.1356,0.134,0.131,0.1293,0.1274,0.1248,0.1241,0.1211,0.1184,0.1159,0.1123,0.1111,0.1084,0.1078,0.1094,0.1091,0.1084,0.1085,0.1064,0.106,0.1066,0.1066,0.1065,0,0.1448,0.1432,0.1395,0.138,0.1363,0.134,0.1322,0.1298,0.1281,0.1248,0.1235,0.1207,0.1182,0.114,0.1115,0.1087,0.108,0.1075,0.1076,0.1083,0.108,0.1082,0.108,0.1075,0.1075,0.1075,0.1075,0,0.1439,0.1428,0.1405,0.1376,0.1357,0.1333,0.1309,0.1298,0.1269,0.1251,0.1223,0.1204,0.1168,0.1139,0.1109,0.1091,0.1078,0.1075,0.1072,0.1078,0.1087,0.1082,0.1095,0.1076,0.1076,0.1076,0.1076,0.1076,0.1437,0.1422,0.1394,0.1368,0.1347,0.1325,0.1308,0.1287,0.1263,0.1232,0.1219,0.119,0.1162,0.112,0.1102,0.1079,0.1077,0.1072,0.1071,0.107,0.1071,0.1091,0.1074,0.1074,0.1074,0.1074,0.1074,0,0.1428,0.1409,0.1385,0.1352,0.1332,0.1322,0.1295,0.1279,0.1254,0.1229,0.1206,0.1174,0.1147,0.1119,0.1091,0.1078,0.1071,0.1071,0.1072,0.1068,0.1075,0.1081,0.1077,0.1077,0.1077,0.1077,0.1077,0.1077,0.142,0.1394,0.138,0.1343,0.1324,0.1296,0.1282,0.1262,0.1242,0.1207,0.1184,0.1167,0.1141,0.111,0.1085,0.1077,0.1068,0.1069,0.106,0.1067,0.1067,0.1067,0.1073,0.1067,0.1067,0.1055,0.1055,0.1055]}]]